Weather History for Grove, OK

Change the Weather History Date:

Sunday, March 9, 2014

  Actual Average (KSLG) Record (KSLG)
Temperature  
Mean Temperature 44 °F -  
Max Temperature 59 °F 51 °F 75 °F (2009)
Min Temperature 28 °F 33 °F 21 °F (1998)
Degree Days  
Heating Degree Days 22    
Moisture  
Dew Point 37 °F    
Average Humidity 86    
Maximum Humidity 100    
Minimum Humidity 51    
Precipitation  
Precipitation 0.00 in - - ()
Sea Level Pressure  
Sea Level Pressure 30.25 in    
Wind  
Wind Speed 2 mph (WSW)    
Max Wind Speed 10 mph    
Max Gust Speed -    
Visibility 5 miles    
Events Fog    
Averages and records for this station are not official NWS values.
T = Trace of Precipitation, MM = Missing Value Source: NWS Daily Summary

Daily Weather History Graph

Daily Weather History Graph

Search for Another Location

Airport:

Trip Planner

Search our weather history database for the weather conditions in past years. The results will help you decide how hot, cold, wet, or windy it might be!

Date:

Astronomy

Mar. 09, 2014 Rise Set
Actual Time 7:38 AM CDT 7:20 PM CDT
Civil Twilight 7:12 AM CDT 7:46 PM CDT
Nautical Twilight 6:42 AM CDT 8:16 PM CDT
Astronomical Twilight 6:12 AM CDT 8:46 PM CDT
Moon 1:21 PM CDT (3/9) 3:58 AM CDT (3/9)
Length of Visible Light 12h 34m
Length of Day
11h 42m
First Quarter, 61% of the Moon is Illuminated
Mar 9
First Quarter
Mar 16
Full
Mar 23
Last Quarter
Mar 30
New
Apr 7
First Quarter

Hourly Weather History & Observations

Time (CDT) Temp. Windchill Dew Point Humidity Pressure Visibility Wind Dir Wind Speed Gust Speed Precip Events Conditions
12:15 AM 35.6 °F - 35.6 °F 100% 30.32 in 4.0 mi Calm Calm - N/A   Overcast
12:35 AM 35.6 °F - 35.6 °F 100% 30.32 in 4.0 mi Calm Calm - N/A   Mostly Cloudy
12:55 AM 33.8 °F - 33.8 °F 100% 30.33 in 2.5 mi Calm Calm - N/A   Mostly Cloudy
1:15 AM 33.8 °F - 33.8 °F 100% 30.33 in 3.0 mi Calm Calm - N/A   Clear
1:35 AM 33.8 °F - 33.8 °F 100% 30.34 in 2.5 mi Calm Calm - N/A   Clear
1:55 AM 33.8 °F - 33.8 °F 100% 30.33 in 2.0 mi Calm Calm - N/A   Overcast
3:15 AM 33.8 °F - 33.8 °F 100% 30.33 in 1.8 mi Calm Calm - N/A   Overcast
3:35 AM 33.8 °F - 33.8 °F 100% 30.33 in 1.5 mi Calm Calm - N/A   Scattered Clouds
3:55 AM 32.0 °F 28.7 °F 32.0 °F 100% 30.33 in 1.0 mi North 3.5 mph - N/A   Mist
4:15 AM 32.0 °F - 32.0 °F 100% 30.32 in 0.5 mi Calm Calm - N/A Fog Fog
4:35 AM 32.0 °F - 32.0 °F 100% 30.32 in 0.2 mi Calm Calm - N/A Fog Fog
4:55 AM 32.0 °F - 32.0 °F 100% 30.32 in 0.2 mi Calm Calm - N/A Fog Fog
5:15 AM 32.0 °F - 32.0 °F 100% 30.32 in 0.2 mi Calm Calm - N/A Fog Light Freezing Fog
5:35 AM 32.0 °F - 32.0 °F 100% 30.33 in 0.2 mi Calm Calm - N/A Fog Light Freezing Fog
5:55 AM 30.2 °F - 30.2 °F 100% 30.33 in 0.2 mi Calm Calm - N/A Fog Light Freezing Fog
6:15 AM 30.2 °F - 30.2 °F 100% 30.32 in 0.2 mi Calm Calm - N/A Fog Light Freezing Fog
6:35 AM 30.2 °F - 30.2 °F 100% 30.33 in 0.2 mi Calm Calm - N/A Fog Light Freezing Fog
6:55 AM 30.2 °F - 30.2 °F 100% 30.33 in 0.2 mi Calm Calm - N/A Fog Light Freezing Fog
7:15 AM 30.2 °F - 30.2 °F 100% 30.33 in 0.2 mi Calm Calm - N/A Fog Light Freezing Fog
7:35 AM 28.4 °F - 28.4 °F 100% 30.33 in 0.2 mi Calm Calm - N/A Fog Light Freezing Fog
7:55 AM 28.4 °F - 28.4 °F 100% 30.33 in 0.2 mi Calm Calm - N/A Fog Light Freezing Fog
8:15 AM 28.4 °F - 28.4 °F 100% 30.33 in 0.2 mi Calm Calm - N/A Fog Light Freezing Fog
8:35 AM 30.2 °F - 30.2 °F 100% 30.33 in 0.2 mi Calm Calm - N/A Fog Light Freezing Fog
8:55 AM 32.0 °F - 32.0 °F 100% 30.34 in 0.8 mi Calm Calm - N/A   Mist
9:15 AM 32.0 °F - 32.0 °F 100% 30.34 in 0.8 mi Calm Calm - N/A   Mostly Cloudy
9:35 AM 32.0 °F - 32.0 °F 100% 30.33 in 0.2 mi Calm Calm - N/A Fog Fog
9:55 AM 33.8 °F - 33.8 °F 100% 30.34 in 1.2 mi Calm Calm - N/A   Mostly Cloudy
10:15 AM 33.8 °F - 33.8 °F 100% 30.34 in 1.8 mi Calm Calm - N/A   Scattered Clouds
10:35 AM 35.6 °F - 35.6 °F 100% 30.34 in 2.0 mi Calm Calm - N/A   Mostly Cloudy
10:55 AM 37.4 °F - 37.4 °F 100% 30.34 in 2.0 mi Calm Calm - N/A   Scattered Clouds
11:15 AM 41.0 °F 39.0 °F 41.0 °F 100% 30.34 in 2.5 mi NW 3.5 mph - N/A   Scattered Clouds
11:35 AM 39.2 °F 35.9 °F 39.2 °F 100% 30.34 in 2.0 mi NNW 4.6 mph - N/A   Overcast
11:55 AM 42.8 °F 41.1 °F 42.8 °F 100% 30.33 in 4.0 mi WSW 3.5 mph - N/A   Scattered Clouds
12:20 PM 42.8 °F 40.1 °F 42.8 °F 100% 30.33 in 3.0 mi NNW 4.6 mph - N/A   Scattered Clouds
12:35 PM 44.6 °F 42.2 °F 44.6 °F 100% 30.32 in 3.0 mi NNW 4.6 mph - N/A   Scattered Clouds
12:55 PM 44.6 °F 43.1 °F 42.8 °F 93% 30.32 in 4.0 mi West 3.5 mph - N/A   Scattered Clouds
1:15 PM 46.4 °F 45.2 °F 41.0 °F 81% 30.31 in 4.0 mi West 3.5 mph - N/A   Haze
1:35 PM 48.2 °F - 41.0 °F 76% 30.30 in 5.0 mi West 5.8 mph - N/A   Haze
1:55 PM 50.0 °F - 39.2 °F 66% 30.28 in 7.0 mi WNW 3.5 mph - N/A   Clear
2:15 PM 50.0 °F - 37.4 °F 62% 30.27 in 7.0 mi West 3.5 mph - N/A   Clear
2:35 PM 50.0 °F - 37.4 °F 62% 30.25 in 7.0 mi SW 4.6 mph - N/A   Clear
2:55 PM 51.8 °F - 37.4 °F 58% 30.24 in 7.0 mi SW 4.6 mph - N/A   Clear
3:15 PM 53.6 °F - 37.4 °F 54% 30.22 in 10.0 mi WSW 3.5 mph - N/A   Clear
3:35 PM 55.4 °F - 41.0 °F 58% 30.20 in 10.0 mi SW 4.6 mph - N/A   Clear
3:55 PM 55.4 °F - 39.2 °F 54% 30.20 in 10.0 mi West 4.6 mph - N/A   Clear
4:15 PM 57.2 °F - 39.2 °F 51% 30.18 in 10.0 mi West 5.8 mph - N/A   Clear
4:35 PM 57.2 °F - 41.0 °F 55% 30.16 in 10.0 mi West 4.6 mph - N/A   Clear
5:00 PM 59.0 °F - 41.0 °F 51% 30.16 in 10.0 mi WNW 6.9 mph - N/A   Clear
5:15 PM 57.2 °F - 39.2 °F 51% 30.16 in 10.0 mi West 8.1 mph - N/A   Clear
5:35 PM 59.0 °F - 41.0 °F 51% 30.16 in 10.0 mi West 6.9 mph - N/A   Clear
5:55 PM 57.2 °F - 41.0 °F 55% 30.14 in 10.0 mi West 5.8 mph - N/A   Clear
6:15 PM 57.2 °F - 41.0 °F 55% 30.13 in 10.0 mi West 5.8 mph - N/A   Clear
6:35 PM 55.4 °F - 41.0 °F 58% 30.13 in 10.0 mi WSW 6.9 mph - N/A   Clear
6:55 PM 55.4 °F - 41.0 °F 58% 30.13 in 10.0 mi West 3.5 mph - N/A   Clear
7:15 PM 53.6 °F - 41.0 °F 62% 30.13 in 10.0 mi WSW 3.5 mph - N/A   Clear
7:35 PM 51.8 °F - 41.0 °F 67% 30.13 in 10.0 mi West 3.5 mph - N/A   Clear
7:55 PM 50.0 °F - 41.0 °F 71% 30.14 in 10.0 mi WSW 3.5 mph - N/A   Clear
8:15 PM 48.2 °F - 41.0 °F 76% 30.14 in 10.0 mi SSW 4.6 mph - N/A   Clear
8:35 PM 50.0 °F - 41.0 °F 71% 30.14 in 10.0 mi Calm Calm - N/A   Clear
8:55 PM 48.2 °F - 41.0 °F 76% 30.14 in 10.0 mi South 5.8 mph - N/A   Clear
9:15 PM 46.4 °F 43.5 °F 42.8 °F 87% 30.14 in 7.0 mi South 5.8 mph - N/A   Clear
9:35 PM 46.4 °F 42.4 °F 42.8 °F 87% 30.14 in 7.0 mi South 8.1 mph - N/A   Clear
9:55 PM 46.4 °F 42.4 °F 42.8 °F 87% 30.14 in 7.0 mi South 8.1 mph - N/A   Clear
10:15 PM 46.4 °F 41.5 °F 42.8 °F 87% 30.14 in 7.0 mi South 10.4 mph - N/A   Clear
10:35 PM 46.4 °F 42.4 °F 42.8 °F 87% 30.15 in 7.0 mi South 8.1 mph - N/A   Clear
10:55 PM 44.6 °F 41.4 °F 41.0 °F 87% 30.14 in 7.0 mi South 5.8 mph - N/A   Clear
11:15 PM 44.6 °F 42.2 °F 41.0 °F 87% 30.14 in 7.0 mi South 4.6 mph - N/A   Clear
11:35 PM 42.8 °F - 42.8 °F 100% 30.14 in 5.0 mi Calm Calm - N/A   Clear
11:55 PM 42.8 °F - 42.8 °F 100% 30.13 in 5.0 mi Calm Calm - N/A   Clear
12:15 AM 42.8 °F 40.1 °F 42.8 °F 100% 30.13 in 5.0 mi South 4.6 mph - N/A   Clear
12:35 AM 41.0 °F 39.0 °F 41.0 °F 100% 30.12 in 5.0 mi South 3.5 mph - N/A   Clear
12:55 AM 41.0 °F 39.0 °F 41.0 °F 100% 30.11 in 4.0 mi South 3.5 mph - N/A   Clear